Weather Roundup
Issued by NWS

Home | Current Version | Previous Version | Graphics & Text | Print | Product List | Glossary Off
Versions: 1 2 3 4 5 6 7 8 9 10 11 12 13 14 15 16 17 18 19 20 21 22 23 24 25 26 27 28 29 30 31 32 33 34 35 36 37 38 39 40 41 42 43 44 45 46 47 48 49 50

027
NZUS93 KARX 101159
HRRWXR

CURRENT HOURLY OBSERVATIONS ACROSS
MUCH OF THE UPPER MISSISSIPPI VALLEY
NATIONAL WEATHER SERVICE LA CROSSE WI
600 AM CST SAT DEC 10 2016


...SOUTHEAST MINNESOTA...


CITY           SKY/WX    TMP DP  RH WIND       PRES   REMARKS
ROCHESTER      PTCLDY     2   0  91 NW6       30.46R WCI  -9
ROCHESTER/MAYO FAIR       6   2  84 W7        30.48R WCI  -6
WINONA           N/A     10   5  79 W3        30.52R
AUSTIN         CLOUDY     7   3  85 NW7       30.47R WCI  -5
ALBERT LEA     CLOUDY    10   7  85 N6        30.47S WCI   1
DODGE CENTER   CLEAR      3   0  85 NW3       30.46R
PRESTON        CLOUDY     5   1  84 NW3       30.46S
OWATONNA       PTCLDY     3   0  85 W3        30.49R
FARIBAULT      CLEAR      3   0  85 W3        30.50R
$$

...ELSEWHERE IN MINNESOTA...


CITY           SKY/WX    TMP DP  RH WIND       PRES   REMARKS
MINNEAPOLIS    CLEAR      4  -1  80 W6        30.50S WCI  -7
INTNL FALLS    CLEAR     -9 -13  83 W5        30.42S WCI -20
DULUTH         LGT SNOW   3  -2  79 N5        30.40R WCI  -6
RED WING       CLEAR      7   1  78 NW3       30.49S
REDWOOD FALLS  PTCLDY     2  -3  80 NW3       30.51F
MANKATO        CLOUDY     3  -1  83 NW3       30.51S
WORTHINGTON    FLURRIES   6   2  83 NE8       30.42F WCI  -7
FAIRMONT       FLURRIES   7   2  80 NE7       30.48F WCI  -5
$$

...SOUTHWEST WISCONSIN...


CITY           SKY/WX    TMP DP  RH WIND       PRES   REMARKS
LA CROSSE      CLEAR     10   5  80 W6        30.50F WCI   0
PRAIRIE DU CHI PTCLDY    14  10  83 NW3       30.50F
BOSCOBEL       CLEAR     15   9  76 S3        30.50F
LONE ROCK      NOT AVBL
PLATTEVILLE    MOCLDY    15  14  98 SW5       30.47F WCI   7
FORT MC COY    PTCLDY     8   6  89 W5        30.48S WCI   0
MAUSTON-NEW LI SUNNY     11   7  82 NW3       30.44F
VIROQUA        FAIR       7   2  80 W5        30.43R WCI  -1
WIS DELLS      MOCLDY    12   8  84 CALM      30.45F
$$

...ELSEWHERE IN WISCONSIN...


CITY           SKY/WX    TMP DP  RH WIND       PRES   REMARKS
MILWAUKEE      PTCLDY    19  11  70 W7        30.48R WCI  10
MADISON        FLURRIES  15  11  83 NW3       30.46F
GREEN BAY      CLOUDY    20   8  60 W10       30.42S WCI   9
EAU CLAIRE     NOT AVBL
BLACK RVR FLS  FAIR       3  -1  83 SW3       30.48R
MEDFORD        FLURRIES  10   5  80 NW5       30.38R WCI   1
WAUSAU         CLOUDY    11   3  70 W9        30.39S WCI  -2
WIS RAPIDS     FLURRIES  10   8  92 W7        30.44S WCI  -1
MARSHFIELD     CLOUDY    11   4  73 NW7       30.39F WCI   0
RICE LAKE      CLOUDY    10   5  77 W7        30.45S WCI   0
$$

...NORTHEAST IOWA...


CITY           SKY/WX    TMP DP  RH WIND       PRES   REMARKS
WATERLOO       CLOUDY    18  14  84 CALM      30.49S
DUBUQUE        MOCLDY    12  10  92 CALM      30.48S
DECORAH        CLOUDY    10   7  85 NW3       30.46R
MASON CITY     CLOUDY    11   6  81 N7        30.49R WCI   0
CHARLES CITY   CLOUDY    12   9  85 N6        30.48S WCI   3
OELWEIN        FLURRIES  16  14  93 CALM      30.48S
$$

...ELSEWHERE IN IOWA...


CITY           SKY/WX    TMP DP  RH WIND       PRES   REMARKS
DES MOINES     CLOUDY    23  13  65 SE6       30.48S WCI  16
IOWA CITY      CLOUDY    22  15  75 CALM      30.53F
FORT DODGE     CLOUDY    16  10  79 NE6       30.47S WCI   7
MARSHALLTOWN   CLOUDY    20  14  77 CALM      30.48S
CEDAR RAPIDS   CLOUDY    18  16  92 CALM      30.48F
$$

...NORTHERN ILLINOIS...


CITY           SKY/WX    TMP DP  RH WIND       PRES   REMARKS
CHICAGO-OHARE  MOCLDY    18  12  77 W8        30.50S WCI   8
CHICAGO-MIDWAY CLOUDY    21  11  65 W10       30.52R WCI  10
MOLINE         CLOUDY    21  14  74 SW5       30.54R WCI  15
ROCKFORD       CLOUDY    18  13  80 W5        30.52S WCI  11
PEORIA         CLOUDY    22  14  71 CALM      30.55S
$$

NOTE: "FAIR" INDICATES FEW OR NO CLOUDS BELOW 12,000 FEET WITH NO
SIGNIFICANT WEATHER AND/OR OBSTRUCTIONS TO VISIBILITY. WIND
SPEEDS ARE IN MILES-PER-HOUR.




USA.gov is the U.S. government's official web portal to all federal, state and local government web resources and services.